DW4277 Weather Reports


time (UTC)temp
F
wind
direction
speed
knots
gust
knots
rain 1hr
in
rain 24hr
in
rain mn
in
humidity
%
barometer
mb
20260505064502 59 198 0.0 0.0 0.00 0.00 0.00 68 1007.5
20260505063004 59 199 0.0 0.0 0.00 0.00 0.00 70 1007.4
20260505061605 58 200 0.0 2.6 0.00 0.00 0.00 71 1007.4
20260505060100 58 200 0.0 0.0 0.00 0.00 0.00 73 1007.5
20260505054600 57 200 0.0 0.0 0.00 0.00 0.00 71 1007.4
20260505053103 57 200 0.0 0.0 0.00 0.00 0.00 72 1007.4
20260505051558 56 200 0.0 0.0 0.00 0.00 0.00 73 1007.3
20260505050123 54 200 0.0 0.0 0.00 0.00 0.00 75 1007.3
20260505041558 52 194 0.0 0.0 0.00 0.00 0.00 77 1007.3
20260505040053 52 194 0.0 0.0 0.00 0.00 0.00 76 1007.3
20260505034540 52 194 0.0 0.0 0.00 0.00 0.00 75 1007.3
20260505033045 52 194 0.0 0.0 0.00 0.00 0.00 75 1007.3
20260505031544 53 194 0.0 0.0 0.00 0.00 0.00 74 1007.3
20260505030040 53 194 0.0 0.0 0.00 0.00 0.00 74 1007.4
20260505024532 53 194 0.0 0.0 0.00 0.00 0.00 72 1007.5
20260505023039 55 194 0.0 0.0 0.00 0.00 0.00 70 1007.5
20260505021529 55 194 0.0 0.0 0.00 0.00 0.00 68 1007.6
20260505020026 56 194 0.0 0.0 0.00 0.00 0.00 68 1007.5
20260505014524 56 194 0.0 0.0 0.00 0.00 0.00 67 1007.6
20260505013023 57 194 0.0 0.0 0.00 0.00 0.00 64 1007.6
20260505011526 58 194 0.0 0.0 0.00 0.00 0.00 63 1007.7
20260505010015 58 194 0.0 0.0 0.00 0.00 0.00 63 1007.7
20260505004524 59 194 0.0 0.0 0.00 0.00 0.00 63 1007.8
20260505003011 59 194 0.0 0.0 0.00 0.00 0.00 63 1008.0
20260505001509 60 194 0.0 0.0 0.00 0.00 0.00 61 1008.2
20260505000010 60 194 0.0 0.0 0.00 0.00 0.00 61 1008.2
20260504234504 61 194 0.0 0.0 0.00 0.00 0.00 59 1008.4
20260504233002 62 194 0.0 0.0 0.00 0.00 0.00 58 1008.4
20260504231559 62 194 0.0 0.0 0.00 0.00 0.00 56 1008.4
20260504230057 63 194 0.0 0.0 0.00 0.00 0.00 55 1008.5
20260504224608 63 194 0.0 0.0 0.00 0.00 0.00 55 1008.6
20260504223052 64 196 0.0 10.4 0.00 0.00 0.00 54 1008.6
20260504221549 64 206 0.0 7.8 0.00 0.00 0.00 53 1008.8
20260504220047 65 207 0.9 8.7 0.00 0.00 0.00 52 1008.9
20260504214546 65 214 4.3 13.9 0.00 0.00 0.00 52 1008.9
20260504213104 65 206 4.3 10.4 0.00 0.00 0.00 51 1009.1
20260504211545 65 190 0.0 11.3 0.00 0.00 0.00 51 1009.1
20260504210047 66 179 1.7 6.1 0.00 0.00 0.00 50 1009.2
20260504204547 67 178 0.9 8.7 0.00 0.00 0.00 48 1009.3
20260504203052 68 183 0.9 13.9 0.00 0.00 0.00 46 1009.2
20260504201543 68 177 3.5 12.2 0.00 0.00 0.00 45 1009.2
20260504200046 69 209 0.0 17.4 0.00 0.00 0.00 44 1009.3
20260504194556 70 204 3.5 20.9 0.00 0.00 0.00 43 1009.3
20260504193052 71 194 7.8 20.9 0.00 0.00 0.00 42 1009.4
20260504191541 71 188 6.1 20.9 0.00 0.00 0.00 41 1009.2
20260504190042 72 189 12.2 28.7 0.00 0.00 0.00 40 1009.1
20260504184540 72 184 8.7 20.0 0.00 0.00 0.00 39 1009.1
20260504183040 72 190 10.4 28.7 0.00 0.00 0.00 38 1009.0
20260504181543 73 188 10.4 24.3 0.00 0.00 0.00 37 1009.0
20260504180040 74 184 9.6 24.3 0.00 0.00 0.00 36 1009.0
20260504174539 74 186 9.6 26.9 0.00 0.00 0.00 35 1008.9
20260504173047 75 197 13.0 27.8 0.00 0.00 0.00 35 1009.0
20260504171538 76 201 11.3 27.8 0.00 0.00 0.00 34 1008.9
20260504110107 77 186 7.0 24.3 0.00 0.00 0.00 37 1012.3
20260504081520 70 162 6.1 13.9 0.00 0.00 0.00 50 1013.5